Regional Weather Roundup
Issued by NWS

Home | Current Version | Previous Version | Graphics & Text | Print | Product List | Glossary On
Versions: 1 2 3 4 5 6 7 8 9 10 11 12 13 14 15 16 17 18 19 20 21 22 23 24 25 26 27 28 29 30 31 32 33 34 35 36 37 38 39 40 41 42 43 44 45 46 47 48 49 50
984
ASUS45 KSLC 270310
RWRUT

UTAH REGIONAL WEATHER ROUNDUP
NATIONAL WEATHER SERVICE SALT LAKE CITY UT
900 PM MDT THU MAY 26 2016

UTZ001>011-023>025-270400-

NORTHERN UTAH

CITY           SKY/WX    TMP DP  RH WIND       PRES   REMARKS
BRIGHAM CITY     N/A     61  41  46 N6        29.96R
HILL AFB       PTCLDY    60  41  49 N6        29.97R
LOGAN          CLEAR     56  46  69 N6        29.94R
OGDEN          MOCLDY    61  42  49 N8        29.95R
PROVO AIRPORT  PTCLDY    57  37  47 CALM      29.96S
SALT LAKE CITY MOCLDY    63  37  38 E15       29.94R
VERNAL         CLOUDY    58  36  43 CALM      29.90R
WENDOVER       PTCLDY    63  36  36 NE6       29.97S
HEBER CITY     MOCLDY    50  37  62 N5        30.00S
WEST JORDAN    PTCLDY    59  37  44 N13       29.97R

$$

UTZ012>022-026-027-270400-

SOUTHERN/CENTRAL UTAH

CITY           SKY/WX    TMP DP  RH WIND       PRES   REMARKS
BLANDING       CLOUDY    53  33  46 NW10G16   30.02R
BRYCE CANYON   PTCLDY    45  33  63 NW10      30.09R
CEDAR CITY     CLOUDY    52  39  61 W3        30.04R
DELTA          PTCLDY    57  37  47 NE3       29.97R
HANKSVILLE     MOCLDY    61  32  33 SW7       29.92S
MILFORD        LGT RAIN  56  43  61 S13       29.99R
MOAB/CYNLANDS  MOCLDY    61  32  33 SW5       29.89R
PRICE          CLEAR     54  31  41 NW14G26   29.94F
ST GEORGE      MOCLDY    68  37  32 NE6       29.93R
KANAB          PTCLDY    55  36  47 NW6       30.03R

$$

REGIONAL REPORTS     COLORADO/ARIZONA

CITY           SKY/WX    TMP DP  RH WIND       PRES   REMARKS
CRAIG, CO      CLOUDY    49  40  71 SE6       29.95R
GRAND JUNCTION CLOUDY    58  35  42 W13G28    29.91R
RIFLE          CLOUDY    56  36  47 E8        29.92R
MONTROSE       LGT RAIN  55  36  48 W14G21    29.95R
CORTEZ         CLOUDY    47  34  60 E3        29.96R
PAGE, AZ       PTCLDY    64  35  34 W10G22    29.92R
GRAND CANYON   CLEAR     48  30  49 CALM      30.06R
KINGMAN        CLEAR     73  26  17 W7        29.92S
FLAGSTAFF      CLEAR     49  29  46 NW3       30.08R

$$

REGIONAL REPORTS    NEVADA/IDAHO/WYOMING

CITY           SKY/WX    TMP DP  RH WIND       PRES   REMARKS
LAS VEGAS, NV  PTCLDY    81  30  15 W5        29.80R
ELY            PTCLDY    52  36  54 NW7       30.05R
ELKO           PTCLDY    57  42  57 NE6       30.03R
POCATELLO, ID  CLOUDY    54  44  69 S10       29.95S
BURLEY         CLEAR     61  37  41 W8        29.93R
EVANSTON, WY   CLOUDY    44  35  70 W14       30.04R
ROCK SPRINGS   CLOUDY    53  27  36 W15       29.95R
KEMMERER         N/A     46  36  66 W8        30.03R

$$




USA.gov is the U.S. government's official web portal to all federal, state and local government web resources and services.